Location: Unspecified
(0.0000°N, 0.0000°E)
Time: 08:17:48
(UTC+00:00)

O/OREOS (USA 219) - Visible Passes

Search period start: 13 January 2026 00:00
Search period end: 23 January 2026 00:00
Orbit: 578 x 600 km, 72.0° (Epoch: 12 January)

Date Brightness Start Highest point End Pass type
(mag) Time Alt. Az. Time Alt. Az. Time Alt. Az.
17 Jan ? 19:27:03 10° SSE 19:28:53 18° SE 19:28:53 18° SE visible
18 Jan ? 19:33:56 10° S 19:37:24 38° ESE 19:37:24 38° ESE visible
19 Jan ? 19:41:22 10° SSW 19:45:35 83° ESE 19:45:59 72° NE visible
20 Jan ? 19:49:13 10° SSW 19:53:16 47° WNW 19:54:40 33° NNW visible
21 Jan ? 19:57:33 10° SW 20:00:57 24° WNW 20:03:25 15° NNW visible
22 Jan ? 20:06:56 10° W 20:08:39 12° WNW 20:10:22 10° NW visible
